| time (UTC) | temp F | wind direction | speed knots | gust knots | rain 1hr in | rain 24hr in | rain mn in | humidity % | barometer mb |
| 20260901231029 | 77 | 273 | 0.0 | 2.6 | 0.00 | 0.01 | 0.01 | 12 | 1021.4 |
| 20260901231024 | 77 | 197 | 0.0 | 2.6 | 0.00 | 0.01 | 0.01 | 11 | 1021.8 |
| 20260901230018 | 78 | 217 | 0.0 | 2.6 | 0.00 | 0.01 | 0.01 | 11 | 1021.8 |
| 20260901225512 | 78 | 214 | 0.0 | 0.9 | 0.00 | 0.01 | 0.01 | 10 | 1021.8 |
| 20260901225507 | 79 | 244 | 0.0 | 0.9 | 0.00 | 0.01 | 0.01 | 10 | 1021.4 |
| 20260901224502 | 79 | 162 | 0.0 | 1.7 | 0.00 | 0.01 | 0.01 | 10 | 1021.4 |
| 20260901223956 | 79 | 271 | 0.0 | 2.6 | 0.00 | 0.01 | 0.01 | 11 | 1021.4 |
| 20260901223451 | 79 | 288 | 0.0 | 2.6 | 0.00 | 0.01 | 0.01 | 11 | 1021.4 |
| 20260901222945 | 80 | 250 | 0.0 | 1.7 | 0.00 | 0.01 | 0.01 | 11 | 1021.8 |
| 20260901222442 | 80 | 0 | 0.0 | 1.7 | 0.00 | 0.01 | 0.01 | 10 | 1021.8 |
| 20260901222436 | 80 | 336 | 0.0 | 0.0 | 0.00 | 0.01 | 0.01 | 10 | 1021.8 |
| 20260901221431 | 80 | 144 | 0.0 | 0.9 | 0.00 | 0.01 | 0.01 | 10 | 1021.8 |
| 20260901221426 | 80 | 242 | 0.0 | 0.9 | 0.00 | 0.01 | 0.01 | 10 | 1021.8 |
| 20260901220421 | 80 | 204 | 0.0 | 0.0 | 0.00 | 0.01 | 0.01 | 10 | 1021.8 |
| 20260901220415 | 80 | 220 | 0.0 | 0.0 | 0.00 | 0.01 | 0.01 | 10 | 1022.1 |
| 20260901215408 | 80 | 270 | 0.0 | 0.0 | 0.00 | 0.01 | 0.01 | 10 | 1021.8 |
| 20260901214904 | 81 | 281 | 0.0 | 0.0 | 0.00 | 0.01 | 0.01 | 10 | 1021.8 |
| 20260901214854 | 81 | 206 | 0.0 | 0.9 | 0.00 | 0.01 | 0.01 | 10 | 1022.1 |
| 20260901214459 | 80 | 194 | 0.0 | 0.9 | 0.00 | 0.01 | 0.01 | 10 | 1022.1 |
| 20260901213348 | 81 | 246 | 0.0 | 5.2 | 0.00 | 0.01 | 0.01 | 10 | 1022.1 |
| 20260901212842 | 81 | 250 | 0.0 | 5.2 | 0.00 | 0.01 | 0.01 | 10 | 1022.1 |
| 20260901212337 | 80 | 225 | 0.0 | 0.0 | 0.00 | 0.01 | 0.01 | 12 | 1022.1 |
| 20260901211832 | 79 | 266 | 0.0 | 0.0 | 0.00 | 0.01 | 0.01 | 10 | 1022.1 |
| 20260901211326 | 79 | 189 | 0.0 | 0.0 | 0.00 | 0.01 | 0.01 | 10 | 1022.1 |
| 20260901210820 | 78 | 215 | 0.0 | 0.0 | 0.00 | 0.01 | 0.01 | 10 | 1022.1 |
| 20260901210316 | 77 | 249 | 0.0 | 0.0 | 0.00 | 0.01 | 0.01 | 10 | 1022.1 |
| 20260901205810 | 77 | 298 | 0.0 | 0.0 | 0.00 | 0.01 | 0.01 | 10 | 1022.1 |
| 20260901205306 | 76 | 175 | 0.0 | 0.0 | 0.00 | 0.01 | 0.01 | 10 | 1021.8 |
| 20260901205300 | 76 | 233 | 0.0 | 0.0 | 0.00 | 0.01 | 0.01 | 10 | 1021.8 |
| 20260901204253 | 76 | 233 | 0.0 | 0.0 | 0.00 | 0.01 | 0.01 | 10 | 1022.4 |
| 20260901203749 | 76 | 181 | 0.0 | 0.0 | 0.00 | 0.01 | 0.01 | 11 | 1022.4 |
| 20260901203743 | 76 | 202 | 0.0 | 0.0 | 0.00 | 0.01 | 0.01 | 10 | 1022.4 |
| 20260901202739 | 76 | 185 | 0.0 | 0.0 | 0.00 | 0.01 | 0.01 | 11 | 1022.1 |
| 20260901202235 | 76 | 199 | 0.0 | 0.9 | 0.00 | 0.01 | 0.01 | 11 | 1022.4 |
| 20260901202230 | 77 | 202 | 0.0 | 0.9 | 0.00 | 0.01 | 0.01 | 12 | 1022.8 |
| 20260901201222 | 77 | 210 | 0.0 | 0.0 | 0.00 | 0.01 | 0.01 | 11 | 1022.4 |
| 20260901200719 | 77 | 219 | 0.0 | 0.9 | 0.00 | 0.01 | 0.01 | 11 | 1022.8 |
| 20260901200214 | 77 | 262 | 0.0 | 0.0 | 0.00 | 0.01 | 0.01 | 10 | 1022.4 |
| 20260901200209 | 77 | 219 | 0.0 | 0.9 | 0.00 | 0.01 | 0.01 | 11 | 1022.8 |
| 20260901195201 | 78 | 178 | 0.0 | 0.9 | 0.00 | 0.01 | 0.01 | 12 | 1022.8 |
| 20260901194658 | 78 | 29 | 0.0 | 0.0 | 0.00 | 0.01 | 0.01 | 10 | 1022.8 |
| 20260901194151 | 77 | 211 | 0.0 | 0.0 | 0.00 | 0.01 | 0.01 | 14 | 1022.4 |
| 20260901193646 | 78 | 231 | 0.0 | 0.0 | 0.00 | 0.01 | 0.01 | 11 | 1022.8 |
| 20260901193140 | 77 | 219 | 0.0 | 0.0 | 0.00 | 0.01 | 0.01 | 11 | 1022.8 |
| 20260901192636 | 78 | 221 | 0.0 | 0.0 | 0.00 | 0.01 | 0.01 | 12 | 1022.8 |
| 20260901191624 | 78 | 293 | 0.0 | 0.9 | 0.00 | 0.01 | 0.01 | 11 | 1023.1 |
| 20260901191119 | 77 | 22 | 0.0 | 0.0 | 0.00 | 0.01 | 0.01 | 10 | 1023.1 |
| 20260901190613 | 77 | 173 | 0.0 | 0.0 | 0.00 | 0.01 | 0.01 | 12 | 1023.1 |
| 20260901190108 | 77 | 107 | 0.0 | 0.0 | 0.00 | 0.01 | 0.01 | 10 | 1023.1 |
| 20260901185604 | 76 | 189 | 0.0 | 0.0 | 0.00 | 0.01 | 0.01 | 10 | 1023.1 |
| 20260901185559 | 76 | 231 | 0.0 | 0.0 | 0.00 | 0.01 | 0.01 | 10 | 1023.1 |
| 20260901184552 | 75 | 240 | 0.0 | 0.0 | 0.00 | 0.01 | 0.01 | 12 | 1023.1 |
| 20260901184047 | 75 | 258 | 0.0 | 0.0 | 0.00 | 0.01 | 0.01 | 12 | 1023.1 |
| 20260901183542 | 74 | 242 | 0.0 | 0.0 | 0.00 | 0.01 | 0.01 | 11 | 1023.1 |
| 20260901183037 | 74 | 238 | 0.0 | 0.0 | 0.00 | 0.01 | 0.01 | 11 | 1023.1 |
| 20260901182531 | 73 | 275 | 0.0 | 0.0 | 0.00 | 0.01 | 0.01 | 11 | 1022.8 |
| 20260901182026 | 73 | 255 | 0.0 | 0.0 | 0.00 | 0.01 | 0.01 | 13 | 1023.5 |
| 20260901181521 | 72 | 166 | 0.0 | 0.0 | 0.00 | 0.01 | 0.01 | 14 | 1023.5 |
| 20260901181516 | 72 | 192 | 0.0 | 0.0 | 0.00 | 0.01 | 0.01 | 17 | 1022.8 |
| 20260901180510 | 72 | 256 | 0.0 | 0.9 | 0.00 | 0.01 | 0.01 | 17 | 1023.1 |
| 20260901180005 | 71 | 38 | 0.0 | 0.9 | 0.00 | 0.01 | 0.01 | 18 | 1023.5 |
| 20260901175459 | 71 | 232 | 0.0 | 0.0 | 0.00 | 0.01 | 0.01 | 19 | 1023.1 |
| 20260901174954 | 71 | 328 | 0.0 | 0.0 | 0.00 | 0.01 | 0.01 | 19 | 1023.1 |
| 20260901174449 | 71 | 209 | 0.0 | 0.0 | 0.00 | 0.01 | 0.01 | 19 | 1022.8 |
| 20260901174444 | 71 | 195 | 0.0 | 0.0 | 0.00 | 0.01 | 0.01 | 18 | 1023.1 |
| 20260901173437 | 70 | 202 | 0.0 | 0.0 | 0.00 | 0.01 | 0.01 | 18 | 1022.8 |
| 20260901172931 | 70 | 261 | 0.0 | 0.0 | 0.00 | 0.01 | 0.01 | 19 | 1022.8 |
| 20260901172427 | 69 | 228 | 0.0 | 0.0 | 0.00 | 0.01 | 0.01 | 20 | 1022.8 |
| 20260901171921 | 69 | 294 | 0.0 | 0.0 | 0.00 | 0.01 | 0.01 | 19 | 1022.8 |
| 20260901171416 | 69 | 218 | 0.0 | 0.0 | 0.00 | 0.01 | 0.01 | 20 | 1022.8 |
| 20260901170910 | 69 | 187 | 0.0 | 0.9 | 0.00 | 0.01 | 0.01 | 21 | 1022.8 |
| 20260901170405 | 68 | 230 | 0.0 | 0.9 | 0.00 | 0.01 | 0.01 | 22 | 1022.4 |
| 20260901165900 | 68 | 303 | 0.0 | 0.0 | 0.00 | 0.01 | 0.01 | 22 | 1022.8 |
| 20260901165355 | 68 | 234 | 0.0 | 0.0 | 0.00 | 0.01 | 0.01 | 22 | 1022.8 |
| 20260901164851 | 68 | 185 | 0.0 | 0.0 | 0.00 | 0.01 | 0.01 | 23 | 1022.8 |
| 20260901164845 | 68 | 242 | 0.0 | 0.9 | 0.00 | 0.01 | 0.01 | 23 | 1022.8 |
| 20260901163838 | 68 | 230 | 0.0 | 0.9 | 0.00 | 0.01 | 0.01 | 24 | 1022.8 |
| 20260901163333 | 69 | 245 | 0.0 | 0.0 | 0.00 | 0.01 | 0.01 | 24 | 1022.8 |
| 20260901163325 | 69 | 192 | 0.0 | 0.0 | 0.00 | 0.01 | 0.01 | 24 | 1023.1 |
| 20260901162930 | 69 | 280 | 0.0 | 0.0 | 0.00 | 0.01 | 0.01 | 24 | 1022.8 |
| 20260901161818 | 69 | 255 | 0.0 | 0.9 | 0.00 | 0.01 | 0.01 | 22 | 1022.8 |
| 20260901161809 | 69 | 168 | 0.0 | 0.0 | 0.00 | 0.01 | 0.01 | 20 | 1022.8 |
| 20260901161413 | 69 | 156 | 0.0 | 0.9 | 0.00 | 0.01 | 0.01 | 21 | 1022.8 |
| 20260901160303 | 69 | 277 | 0.0 | 0.0 | 0.00 | 0.01 | 0.01 | 20 | 1022.8 |
| 20260901155757 | 68 | 206 | 0.0 | 0.0 | 0.00 | 0.01 | 0.01 | 21 | 1022.4 |
| 20260901155252 | 68 | 280 | 0.0 | 0.0 | 0.00 | 0.01 | 0.01 | 21 | 1022.4 |
| 20260901154747 | 67 | 36 | 0.0 | 0.0 | 0.00 | 0.01 | 0.01 | 23 | 1022.4 |
| 20260901154241 | 67 | 198 | 0.0 | 0.0 | 0.00 | 0.01 | 0.01 | 22 | 1022.1 |
| 20260901153736 | 66 | 221 | 0.0 | 0.0 | 0.00 | 0.01 | 0.01 | 24 | 1022.4 |
| 20260901153230 | 66 | 172 | 0.0 | 0.0 | 0.00 | 0.01 | 0.01 | 23 | 1022.1 |
| 20260901152725 | 65 | 155 | 0.0 | 0.0 | 0.00 | 0.01 | 0.01 | 25 | 1022.4 |
| 20260901152220 | 65 | 191 | 0.0 | 0.9 | 0.00 | 0.01 | 0.01 | 26 | 1022.4 |
| 20260901151715 | 64 | 319 | 0.0 | 0.9 | 0.00 | 0.01 | 0.01 | 29 | 1022.1 |
| 20260901151210 | 64 | 244 | 0.0 | 0.0 | 0.00 | 0.01 | 0.01 | 32 | 1021.8 |
| 20260901150704 | 63 | 192 | 0.0 | 0.0 | 0.00 | 0.01 | 0.01 | 30 | 1021.8 |
| 20260901150159 | 62 | 194 | 0.0 | 0.0 | 0.00 | 0.01 | 0.01 | 28 | 1021.8 |
| 20260901145653 | 61 | 207 | 0.0 | 0.0 | 0.00 | 0.01 | 0.01 | 30 | 1022.1 |
| 20260901145147 | 60 | 219 | 0.0 | 0.0 | 0.00 | 0.01 | 0.01 | 30 | 1021.8 |
| 20260901144643 | 59 | 211 | 0.0 | 0.0 | 0.00 | 0.01 | 0.01 | 33 | 1021.8 |
| 20260901144138 | 58 | 238 | 0.0 | 0.0 | 0.00 | 0.01 | 0.01 | 37 | 1021.8 |
| 20260901143633 | 58 | 231 | 0.0 | 0.0 | 0.00 | 0.01 | 0.01 | 37 | 1021.8 |
| 20260901143126 | 57 | 217 | 0.0 | 0.0 | 0.00 | 0.01 | 0.01 | 39 | 1021.8 |
| 20260901142621 | 57 | 221 | 0.0 | 0.0 | 0.00 | 0.01 | 0.01 | 39 | 1021.8 |
| 20260901142115 | 57 | 215 | 0.0 | 0.0 | 0.00 | 0.01 | 0.01 | 39 | 1021.8 |
| 20260901141611 | 57 | 229 | 0.0 | 0.0 | 0.00 | 0.01 | 0.01 | 39 | 1021.4 |
| 20260901141105 | 57 | 220 | 0.0 | 0.0 | 0.00 | 0.01 | 0.01 | 39 | 1021.8 |
| 20260901140601 | 57 | 191 | 0.0 | 0.0 | 0.00 | 0.01 | 0.01 | 39 | 1021.1 |
| 20260901140555 | 57 | 220 | 0.0 | 0.0 | 0.00 | 0.01 | 0.01 | 40 | 1021.1 |
| 20260901135550 | 57 | 220 | 0.0 | 0.0 | 0.00 | 0.01 | 0.01 | 41 | 1021.1 |
| 20260901135044 | 57 | 219 | 0.0 | 0.0 | 0.00 | 0.01 | 0.01 | 41 | 1021.1 |
| 20260901134539 | 57 | 237 | 0.0 | 0.0 | 0.00 | 0.01 | 0.01 | 40 | 1021.1 |
| 20260901134034 | 57 | 246 | 0.0 | 0.0 | 0.00 | 0.01 | 0.01 | 40 | 1020.7 |
| 20260901133528 | 57 | 235 | 0.0 | 0.0 | 0.00 | 0.01 | 0.01 | 40 | 1020.7 |
| 20260901133023 | 57 | 218 | 0.0 | 0.0 | 0.00 | 0.01 | 0.01 | 39 | 1021.1 |
| 20260901132520 | 57 | 247 | 0.0 | 0.0 | 0.00 | 0.01 | 0.01 | 39 | 1020.7 |
| 20260901132515 | 56 | 226 | 0.0 | 0.0 | 0.00 | 0.01 | 0.01 | 40 | 1020.7 |
| 20260901131508 | 56 | 226 | 0.0 | 0.0 | 0.00 | 0.01 | 0.01 | 40 | 1021.1 |
| 20260901131002 | 56 | 208 | 0.0 | 0.0 | 0.00 | 0.01 | 0.01 | 41 | 1020.7 |
| 20260901130457 | 56 | 222 | 0.0 | 0.0 | 0.00 | 0.01 | 0.01 | 41 | 1020.7 |
| 20260901125951 | 55 | 220 | 0.0 | 0.0 | 0.00 | 0.01 | 0.01 | 42 | 1020.7 |
| 20260901125447 | 55 | 214 | 0.0 | 0.0 | 0.00 | 0.01 | 0.01 | 42 | 1020.7 |
| 20260901124942 | 55 | 213 | 0.0 | 0.0 | 0.00 | 0.01 | 0.01 | 42 | 1020.7 |
| 20260901124437 | 55 | 213 | 0.0 | 0.0 | 0.00 | 0.01 | 0.01 | 42 | 1020.7 |
| 20260901123931 | 56 | 213 | 0.0 | 0.0 | 0.00 | 0.01 | 0.01 | 40 | 1020.7 |
| 20260901123425 | 56 | 213 | 0.0 | 0.0 | 0.00 | 0.01 | 0.01 | 41 | 1020.7 |
| 20260901122921 | 56 | 213 | 0.0 | 0.0 | 0.00 | 0.01 | 0.01 | 39 | 1020.7 |
| 20260901122415 | 56 | 213 | 0.0 | 0.0 | 0.00 | 0.01 | 0.01 | 40 | 1020.4 |
| 20260901121910 | 56 | 207 | 0.0 | 0.0 | 0.00 | 0.01 | 0.01 | 40 | 1020.7 |
| 20260901121405 | 57 | 207 | 0.0 | 0.0 | 0.00 | 0.01 | 0.01 | 40 | 1020.7 |
| 20260901121400 | 57 | 216 | 0.0 | 0.0 | 0.00 | 0.01 | 0.01 | 40 | 1020.4 |
| 20260901120353 | 57 | 224 | 0.0 | 0.0 | 0.00 | 0.01 | 0.01 | 40 | 1020.7 |
| 20260901115848 | 57 | 234 | 0.0 | 0.0 | 0.00 | 0.01 | 0.01 | 39 | 1020.4 |
| 20260901115342 | 57 | 226 | 0.0 | 0.0 | 0.00 | 0.01 | 0.01 | 38 | 1020.7 |
| 20260901114838 | 57 | 231 | 0.0 | 0.0 | 0.00 | 0.01 | 0.01 | 38 | 1020.4 |
| 20260901114332 | 57 | 221 | 0.0 | 0.0 | 0.00 | 0.01 | 0.01 | 38 | 1020.7 |
| 20260901113827 | 57 | 223 | 0.0 | 0.0 | 0.00 | 0.01 | 0.01 | 39 | 1020.7 |
| 20260901113321 | 58 | 222 | 0.0 | 0.0 | 0.00 | 0.01 | 0.01 | 38 | 1020.7 |
| 20260901113316 | 58 | 230 | 0.0 | 0.0 | 0.00 | 0.01 | 0.01 | 39 | 1020.4 |
| 20260901112310 | 58 | 227 | 0.0 | 0.0 | 0.00 | 0.01 | 0.01 | 39 | 1020.4 |
| 20260901111805 | 58 | 233 | 0.0 | 0.0 | 0.00 | 0.01 | 0.01 | 38 | 1020.4 |
| 20260901111259 | 58 | 233 | 0.0 | 0.0 | 0.00 | 0.01 | 0.01 | 37 | 1020.4 |
| 20260901110756 | 59 | 232 | 0.0 | 0.0 | 0.00 | 0.01 | 0.01 | 37 | 1020.4 |
| 20260901110751 | 59 | 210 | 0.0 | 0.0 | 0.00 | 0.01 | 0.01 | 37 | 1020.1 |
| 20260901105744 | 60 | 223 | 0.0 | 0.0 | 0.00 | 0.01 | 0.01 | 36 | 1020.4 |
| 20260901105739 | 60 | 218 | 0.0 | 0.0 | 0.00 | 0.01 | 0.01 | 35 | 1020.4 |
| 20260901104733 | 60 | 220 | 0.0 | 0.0 | 0.00 | 0.01 | 0.01 | 35 | 1020.4 |
| 20260901104228 | 60 | 232 | 0.0 | 0.0 | 0.00 | 0.01 | 0.01 | 34 | 1020.4 |
| 20260901103724 | 60 | 201 | 0.0 | 0.0 | 0.00 | 0.01 | 0.01 | 34 | 1020.4 |
| 20260901103218 | 61 | 208 | 0.0 | 0.0 | 0.00 | 0.01 | 0.01 | 34 | 1020.1 |
| 20260901102713 | 61 | 215 | 0.0 | 0.0 | 0.00 | 0.01 | 0.01 | 34 | 1020.4 |
| 20260901102207 | 61 | 188 | 0.0 | 0.0 | 0.00 | 0.01 | 0.01 | 33 | 1020.1 |
| 20260901101702 | 61 | 193 | 0.0 | 0.0 | 0.00 | 0.01 | 0.01 | 33 | 1019.7 |
| 20260901101157 | 61 | 225 | 0.0 | 0.0 | 0.00 | 0.01 | 0.01 | 33 | 1019.7 |
| 20260901100652 | 61 | 166 | 0.0 | 0.0 | 0.00 | 0.01 | 0.01 | 33 | 1019.7 |
| 20260901100146 | 61 | 278 | 0.0 | 0.0 | 0.00 | 0.01 | 0.01 | 32 | 1019.7 |
| 20260901095641 | 61 | 276 | 0.0 | 0.0 | 0.00 | 0.01 | 0.01 | 33 | 1019.7 |
| 20260901095136 | 61 | 321 | 0.0 | 0.0 | 0.00 | 0.01 | 0.01 | 32 | 1019.7 |
| 20260901094630 | 61 | 151 | 0.0 | 0.9 | 0.00 | 0.01 | 0.01 | 32 | 1019.7 |
| 20260901094125 | 61 | 245 | 0.0 | 0.9 | 0.00 | 0.01 | 0.01 | 32 | 1019.7 |
| 20260901093621 | 61 | 203 | 0.0 | 0.0 | 0.00 | 0.01 | 0.01 | 33 | 1020.1 |
| 20260901093616 | 61 | 285 | 0.0 | 0.0 | 0.00 | 0.01 | 0.01 | 33 | 1020.1 |
| 20260901092609 | 61 | 210 | 0.0 | 0.0 | 0.00 | 0.01 | 0.01 | 32 | 1020.1 |
| 20260901092104 | 61 | 239 | 0.0 | 0.0 | 0.00 | 0.01 | 0.01 | 32 | 1020.1 |
| 20260901092059 | 61 | 302 | 0.0 | 0.9 | 0.00 | 0.01 | 0.01 | 32 | 1020.1 |
| 20260901091054 | 61 | 225 | 0.0 | 0.9 | 0.00 | 0.01 | 0.01 | 32 | 1020.1 |
| 20260901090547 | 60 | 186 | 0.0 | 0.0 | 0.00 | 0.01 | 0.01 | 32 | 1019.7 |
| 20260901090042 | 60 | 200 | 0.0 | 0.9 | 0.01 | 0.01 | 0.01 | 32 | 1019.7 |
| 20260901085537 | 60 | 238 | 0.0 | 0.9 | 0.01 | 0.01 | 0.01 | 32 | 1020.1 |
| 20260901085031 | 59 | 214 | 0.0 | 0.9 | 0.01 | 0.01 | 0.01 | 32 | 1020.1 |
| 20260901084527 | 59 | 233 | 0.0 | 0.0 | 0.01 | 0.01 | 0.01 | 34 | 1020.4 |
| 20260901084021 | 59 | 282 | 0.0 | 0.0 | 0.01 | 0.01 | 0.01 | 34 | 1020.1 |
| 20260901083515 | 59 | 238 | 0.0 | 0.0 | 0.01 | 0.01 | 0.01 | 35 | 1020.4 |
| 20260901083010 | 60 | 237 | 0.0 | 0.0 | 0.01 | 0.01 | 0.01 | 34 | 1020.1 |
| 20260901082505 | 60 | 198 | 0.0 | 0.0 | 0.01 | 0.01 | 0.01 | 34 | 1020.1 |
| 20260901082000 | 60 | 232 | 0.0 | 0.0 | 0.01 | 0.01 | 0.01 | 34 | 1020.4 |
| 20260901081454 | 60 | 238 | 0.0 | 0.0 | 0.01 | 0.01 | 0.01 | 34 | 1020.1 |
| 20260901080949 | 60 | 238 | 0.0 | 0.0 | 0.01 | 0.01 | 0.01 | 34 | 1020.1 |
| 20260901080444 | 60 | 227 | 0.0 | 0.0 | 0.01 | 0.01 | 0.01 | 34 | 1020.4 |
| 20260901075934 | 60 | 234 | 0.0 | 0.0 | 0.00 | 0.01 | 0.00 | 33 | 1020.1 |
| 20260901075429 | 60 | 247 | 0.0 | 0.0 | 0.00 | 0.01 | 0.00 | 33 | 1020.1 |
| 20260901074924 | 60 | 217 | 0.0 | 0.0 | 0.00 | 0.01 | 0.00 | 33 | 1020.1 |
| 20260901074419 | 60 | 242 | 0.0 | 0.0 | 0.00 | 0.01 | 0.00 | 33 | 1020.1 |
| 20260901073913 | 61 | 211 | 0.0 | 0.0 | 0.00 | 0.01 | 0.00 | 33 | 1020.1 |
| 20260901073407 | 61 | 226 | 0.0 | 0.0 | 0.00 | 0.01 | 0.00 | 33 | 1020.1 |
| 20260901073402 | 61 | 336 | 0.0 | 0.0 | 0.00 | 0.01 | 0.00 | 33 | 1020.1 |
| 20260901072356 | 61 | 240 | 0.0 | 0.0 | 0.00 | 0.01 | 0.00 | 33 | 1020.1 |
| 20260901071851 | 61 | 210 | 0.0 | 0.0 | 0.00 | 0.01 | 0.00 | 33 | 1020.4 |
| 20260901071345 | 61 | 271 | 0.0 | 0.0 | 0.00 | 0.01 | 0.00 | 32 | 1020.1 |
| 20260901071340 | 61 | 195 | 0.0 | 0.9 | 0.00 | 0.01 | 0.00 | 32 | 1020.1 |
| 20260901070334 | 61 | 224 | 0.0 | 0.9 | 0.00 | 0.01 | 0.00 | 31 | 1020.1 |
| 20260901065829 | 61 | 274 | 0.0 | 0.9 | 0.00 | 0.01 | 0.01 | 31 | 1020.1 |
| 20260901065824 | 61 | 295 | 0.0 | 0.0 | 0.00 | 0.01 | 0.01 | 31 | 1020.4 |
| 20260901064817 | 61 | 198 | 0.0 | 0.0 | 0.00 | 0.01 | 0.01 | 31 | 1020.1 |
| 20260901064312 | 61 | 232 | 0.0 | 0.0 | 0.00 | 0.01 | 0.01 | 32 | 1020.1 |
| 20260901063807 | 61 | 257 | 0.0 | 0.9 | 0.00 | 0.01 | 0.01 | 32 | 1020.1 |
| 20260901063302 | 61 | 294 | 0.0 | 0.9 | 0.00 | 0.01 | 0.01 | 32 | 1020.1 |
| 20260901062755 | 61 | 193 | 0.0 | 0.0 | 0.00 | 0.01 | 0.01 | 32 | 1020.1 |
| 20260901062249 | 62 | 234 | 0.0 | 0.9 | 0.00 | 0.01 | 0.01 | 32 | 1020.1 |
| 20260901061745 | 62 | 234 | 0.0 | 0.9 | 0.00 | 0.01 | 0.01 | 31 | 1020.1 |
| 20260901061238 | 61 | 232 | 0.0 | 0.0 | 0.00 | 0.01 | 0.01 | 31 | 1020.4 |
| 20260901060743 | 61 | 302 | 0.0 | 0.0 | 0.00 | 0.01 | 0.01 | 31 | 1020.1 |
| 20260901060728 | 61 | 233 | 0.0 | 0.0 | 0.00 | 0.01 | 0.01 | 31 | 1020.4 |
| 20260901055722 | 61 | 202 | 0.0 | 0.9 | 0.00 | 0.01 | 0.01 | 31 | 1020.1 |
| 20260901055217 | 61 | 23 | 0.0 | 0.9 | 0.00 | 0.01 | 0.01 | 31 | 1020.1 |
| 20260901055212 | 61 | 236 | 0.0 | 0.9 | 0.00 | 0.01 | 0.01 | 31 | 1020.1 |
| 20260901054206 | 62 | 237 | 0.0 | 0.9 | 0.00 | 0.01 | 0.01 | 31 | 1020.1 |
| 20260901053700 | 62 | 245 | 0.0 | 0.0 | 0.00 | 0.01 | 0.01 | 31 | 1020.4 |
| 20260901053155 | 62 | 194 | 0.0 | 0.0 | 0.00 | 0.01 | 0.01 | 31 | 1019.7 |
| 20260901052649 | 62 | 291 | 0.0 | 0.0 | 0.00 | 0.01 | 0.01 | 31 | 1020.1 |
| 20260901052144 | 62 | 267 | 0.0 | 0.0 | 0.00 | 0.01 | 0.01 | 31 | 1019.7 |
| 20260901051638 | 62 | 226 | 0.0 | 0.0 | 0.00 | 0.01 | 0.01 | 31 | 1020.1 |
| 20260901051132 | 62 | 288 | 0.0 | 0.0 | 0.00 | 0.01 | 0.01 | 32 | 1020.1 |
| 20260901050626 | 62 | 228 | 0.0 | 0.9 | 0.00 | 0.01 | 0.01 | 32 | 1020.1 |
| 20260901050121 | 62 | 268 | 0.0 | 0.9 | 0.00 | 0.01 | 0.01 | 32 | 1020.1 |
| 20260901045619 | 62 | 314 | 0.0 | 0.0 | 0.00 | 0.01 | 0.01 | 32 | 1020.1 |
| 20260901045614 | 62 | 241 | 0.0 | 0.0 | 0.00 | 0.01 | 0.01 | 32 | 1020.1 |
| 20260901044605 | 62 | 223 | 0.0 | 0.0 | 0.00 | 0.01 | 0.01 | 31 | 1020.1 |
| 20260901044100 | 62 | 240 | 0.0 | 0.0 | 0.00 | 0.01 | 0.01 | 31 | 1019.7 |
| 20260901043554 | 62 | 281 | 0.0 | 0.9 | 0.00 | 0.01 | 0.01 | 31 | 1019.7 |
| 20260901043549 | 62 | 274 | 0.0 | 0.9 | 0.00 | 0.01 | 0.01 | 31 | 1019.7 |
| 20260901042543 | 62 | 309 | 0.0 | 0.9 | 0.00 | 0.01 | 0.01 | 31 | 1020.1 |
| 20260901042038 | 62 | 253 | 0.0 | 0.9 | 0.00 | 0.01 | 0.01 | 31 | 1019.7 |
| 20260901041532 | 62 | 313 | 0.0 | 0.0 | 0.00 | 0.01 | 0.01 | 31 | 1019.7 |
| 20260901041026 | 62 | 183 | 0.0 | 0.0 | 0.00 | 0.01 | 0.01 | 31 | 1019.7 |
| 20260901040520 | 62 | 227 | 0.0 | 0.0 | 0.00 | 0.01 | 0.01 | 31 | 1019.7 |
| 20260901040015 | 63 | 156 | 0.0 | 0.0 | 0.00 | 0.01 | 0.01 | 31 | 1019.7 |
| 20260901040010 | 63 | 173 | 0.0 | 0.9 | 0.00 | 0.01 | 0.01 | 31 | 1019.7 |
| 20260901035004 | 63 | 198 | 0.0 | 0.9 | 0.00 | 0.01 | 0.01 | 30 | 1019.4 |
| 20260901034458 | 63 | 249 | 0.0 | 0.0 | 0.00 | 0.01 | 0.01 | 29 | 1019.7 |
| 20260901033953 | 63 | 299 | 0.0 | 0.0 | 0.00 | 0.01 | 0.01 | 30 | 1019.4 |
| 20260901033447 | 64 | 288 | 0.0 | 0.0 | 0.00 | 0.01 | 0.01 | 30 | 1019.4 |
| 20260901032943 | 64 | 171 | 0.0 | 0.0 | 0.00 | 0.01 | 0.01 | 29 | 1019.1 |
| 20260901032438 | 64 | 243 | 0.0 | 0.0 | 0.00 | 0.01 | 0.01 | 29 | 1019.1 |
| 20260901031931 | 65 | 320 | 0.0 | 0.0 | 0.00 | 0.01 | 0.01 | 29 | 1019.1 |
| 20260901031426 | 65 | 308 | 0.0 | 0.0 | 0.00 | 0.01 | 0.01 | 29 | 1019.1 |
| 20260901030920 | 65 | 184 | 0.0 | 0.9 | 0.00 | 0.01 | 0.01 | 32 | 1019.1 |
| 20260901030415 | 66 | 232 | 0.0 | 0.9 | 0.00 | 0.01 | 0.01 | 32 | 1018.7 |
| 20260901025910 | 66 | 255 | 0.0 | 0.0 | 0.00 | 0.01 | 0.01 | 32 | 1019.1 |
| 20260901025405 | 66 | 288 | 0.0 | 0.0 | 0.00 | 0.01 | 0.01 | 32 | 1018.7 |
| 20260901025400 | 66 | 198 | 0.0 | 0.0 | 0.00 | 0.01 | 0.01 | 31 | 1018.4 |
| 20260901024352 | 67 | 210 | 0.0 | 0.0 | 0.00 | 0.01 | 0.01 | 31 | 1018.7 |
| 20260901023849 | 67 | 231 | 0.0 | 0.0 | 0.00 | 0.01 | 0.01 | 30 | 1018.7 |
| 20260901023843 | 67 | 278 | 0.0 | 0.0 | 0.00 | 0.01 | 0.01 | 29 | 1018.7 |
| 20260901022836 | 67 | 181 | 0.0 | 0.0 | 0.00 | 0.01 | 0.01 | 29 | 1018.7 |
| 20260901022330 | 68 | 203 | 0.0 | 0.0 | 0.00 | 0.01 | 0.01 | 29 | 1018.7 |
| 20260901021826 | 68 | 277 | 0.0 | 0.0 | 0.00 | 0.01 | 0.01 | 28 | 1018.7 |
| 20260901021319 | 68 | 238 | 0.0 | 0.9 | 0.00 | 0.01 | 0.01 | 28 | 1018.4 |
| 20260901020814 | 68 | 273 | 0.0 | 0.9 | 0.00 | 0.01 | 0.01 | 28 | 1018.4 |
| 20260901020309 | 69 | 242 | 0.0 | 0.9 | 0.00 | 0.01 | 0.01 | 26 | 1018.7 |
| 20260901015804 | 69 | 229 | 0.0 | 0.9 | 0.00 | 0.01 | 0.01 | 26 | 1018.7 |
| 20260901015259 | 70 | 259 | 0.0 | 0.9 | 0.00 | 0.01 | 0.01 | 25 | 1018.7 |
| 20260901014752 | 70 | 232 | 0.0 | 0.9 | 0.00 | 0.01 | 0.01 | 25 | 1018.7 |
| 20260901014246 | 70 | 249 | 0.0 | 0.9 | 0.00 | 0.01 | 0.01 | 25 | 1018.4 |
| 20260901013740 | 71 | 132 | 0.0 | 0.9 | 0.00 | 0.01 | 0.01 | 25 | 1018.4 |
| 20260901013237 | 71 | 242 | 0.0 | 0.0 | 0.00 | 0.01 | 0.01 | 23 | 1018.7 |
| 20260901013232 | 71 | 193 | 0.0 | 0.0 | 0.00 | 0.01 | 0.01 | 22 | 1018.4 |
| 20260901012726 | 71 | 229 | 0.0 | 0.9 | 0.00 | 0.01 | 0.01 | 22 | 1018.4 |
| 20260901011718 | 72 | 283 | 0.0 | 0.9 | 0.00 | 0.01 | 0.01 | 22 | 1018.4 |
| 20260901011213 | 72 | 219 | 0.0 | 0.9 | 0.00 | 0.01 | 0.01 | 21 | 1018.4 |
| 20260901010708 | 72 | 258 | 0.0 | 1.7 | 0.00 | 0.01 | 0.01 | 21 | 1018.4 |
| 20260901010202 | 72 | 222 | 0.0 | 1.7 | 0.00 | 0.01 | 0.01 | 21 | 1018.4 |
| 20260901005657 | 73 | 225 | 0.0 | 1.7 | 0.00 | 0.01 | 0.01 | 21 | 1018.0 |
| 20260901005151 | 73 | 185 | 0.0 | 1.7 | 0.00 | 0.01 | 0.01 | 20 | 1018.0 |
| 20260901004645 | 73 | 295 | 0.0 | 0.9 | 0.00 | 0.01 | 0.01 | 20 | 1018.0 |
| 20260901004140 | 73 | 316 | 0.0 | 0.9 | 0.00 | 0.01 | 0.01 | 20 | 1018.0 |
| 20260901003634 | 73 | 293 | 0.0 | 0.0 | 0.00 | 0.01 | 0.01 | 19 | 1018.0 |
| 20260901003130 | 74 | 215 | 0.0 | 0.0 | 0.00 | 0.01 | 0.01 | 19 | 1018.0 |
| 20260901002623 | 74 | 283 | 0.0 | 0.0 | 0.00 | 0.01 | 0.01 | 19 | 1018.0 |
| 20260901002117 | 74 | 302 | 0.0 | 1.7 | 0.00 | 0.01 | 0.01 | 19 | 1018.0 |
| 20260901001613 | 74 | 226 | 0.0 | 1.7 | 0.00 | 0.01 | 0.01 | 22 | 1018.0 |
| 20260901001107 | 75 | 265 | 0.0 | 0.9 | 0.00 | 0.01 | 0.01 | 21 | 1018.0 |
| 20260901000601 | 75 | 233 | 0.0 | 0.9 | 0.00 | 0.01 | 0.01 | 18 | 1018.0 |
| 20260901000055 | 75 | 4 | 0.0 | 0.9 | 0.00 | 0.01 | 0.01 | 16 | 1018.0 |
| 20260831235550 | 75 | 283 | 0.0 | 0.9 | 0.00 | 0.01 | 0.01 | 16 | 1018.4 |
| 20260831235045 | 75 | 253 | 0.0 | 0.9 | 0.00 | 0.01 | 0.01 | 16 | 1018.4 |
| 20260831234539 | 76 | 209 | 0.0 | 1.7 | 0.00 | 0.01 | 0.01 | 14 | 1018.0 |
| 20260831234034 | 76 | 232 | 0.0 | 1.7 | 0.00 | 0.01 | 0.01 | 14 | 1018.0 |
| 20260831233528 | 76 | 262 | 0.0 | 1.7 | 0.00 | 0.01 | 0.01 | 14 | 1018.4 |
| 20260831233022 | 76 | 202 | 0.0 | 1.7 | 0.00 | 0.01 | 0.01 | 12 | 1018.0 |
| 20260831232517 | 77 | 269 | 0.0 | 0.9 | 0.00 | 0.01 | 0.01 | 14 | 1018.0 |
| 20260831232011 | 77 | 197 | 0.0 | 0.9 | 0.00 | 0.01 | 0.01 | 12 | 1018.0 |
| 20260831231507 | 77 | 291 | 0.0 | 1.7 | 0.00 | 0.01 | 0.01 | 12 | 1018.4 |
| 20260831231502 | 77 | 302 | 0.0 | 1.7 | 0.00 | 0.01 | 0.01 | 11 | 1018.0 |